TimeEDT,TemperatureF,Dew PointF,Humidity,Sea Level PressureIn,VisibilityMPH,Wind Direction,Wind SpeedMPH,Gust SpeedMPH,PrecipitationIn,Events,Conditions,WindDirDegrees,DateUTC
12:09 AM,68.0,66.2,94,29.97,0.2,Calm,Calm,-,N/A,,Overcast,0,2012-10-03 04:09:00
12:30 AM,68.0,66.2,94,29.97,0.2,Calm,Calm,-,N/A,,Overcast,0,2012-10-03 04:30:00
12:51 AM,68.0,68.0,100,29.97,0.2,Calm,Calm,-,N/A,,Overcast,0,2012-10-03 04:51:00
1:36 AM,68.0,68.0,100,29.97,0.2,Calm,Calm,-,N/A,,Overcast,0,2012-10-03 05:36:00
1:57 AM,68.0,68.0,100,29.98,0.2,ESE,3.5,-,N/A,,Overcast,110,2012-10-03 05:57:00
2:39 AM,68.0,68.0,100,29.98,0.2,Calm,Calm,-,N/A,,Overcast,0,2012-10-03 06:39:00
3:00 AM,68.0,68.0,100,29.98,0.2,Calm,Calm,-,N/A,,Overcast,0,2012-10-03 07:00:00
3:21 AM,68.0,68.0,100,29.98,0.5,Calm,Calm,-,N/A,,Overcast,0,2012-10-03 07:21:00
4:03 AM,68.0,66.2,94,29.99,0.8,Calm,Calm,-,N/A,,Overcast,0,2012-10-03 08:03:00
4:48 AM,68.0,68.0,100,30.00,0.5,Calm,Calm,-,N/A,,Overcast,0,2012-10-03 08:48:00
5:09 AM,68.0,66.2,94,30.01,0.5,Calm,Calm,-,N/A,,Overcast,0,2012-10-03 09:09:00
5:30 AM,68.0,66.2,94,30.01,0.8,Calm,Calm,-,N/A,,Overcast,0,2012-10-03 09:30:00
5:51 AM,68.0,66.2,94,30.03,1.0,Calm,Calm,-,N/A,,Overcast,0,2012-10-03 09:51:00
6:12 AM,68.0,66.2,94,30.03,1.5,Calm,Calm,-,N/A,,Overcast,0,2012-10-03 10:12:00
6:33 AM,68.0,66.2,94,30.04,1.0,Calm,Calm,-,N/A,,Overcast,0,2012-10-03 10:33:00
6:54 AM,68.0,66.2,94,30.04,0.8,Calm,Calm,-,N/A,,Overcast,0,2012-10-03 10:54:00
7:36 AM,68.0,68.0,100,30.05,0.8,SW,3.5,-,N/A,,Overcast,220,2012-10-03 11:36:00
7:57 AM,69.8,68.0,94,30.05,1.5,SSW,3.5,-,N/A,,Overcast,210,2012-10-03 11:57:00
8:42 AM,69.8,68.0,94,30.07,2.5,WSW,5.8,-,N/A,,Overcast,240,2012-10-03 12:42:00
9:03 AM,69.8,68.0,94,30.08,2.0,West,5.8,-,N/A,,Overcast,260,2012-10-03 13:03:00
9:24 AM,69.8,68.0,94,30.08,2.5,WSW,8.1,-,N/A,,Overcast,250,2012-10-03 13:24:00
9:45 AM,69.8,68.0,94,30.09,5.0,West,6.9,-,N/A,,Overcast,270,2012-10-03 13:45:00
10:06 AM,69.8,68.0,94,30.09,5.0,WSW,5.8,-,N/A,,Overcast,250,2012-10-03 14:06:00
10:27 AM,69.8,68.0,94,30.09,10.0,SW,5.8,-,N/A,,Overcast,230,2012-10-03 14:27:00
10:48 AM,69.8,68.0,94,30.09,10.0,SW,5.8,-,N/A,,Overcast,230,2012-10-03 14:48:00
11:30 AM,71.6,68.0,88,30.10,10.0,SW,5.8,-,N/A,,Overcast,230,2012-10-03 15:30:00
11:51 AM,73.4,68.0,83,30.10,10.0,SW,6.9,-,N/A,,Scattered Clouds,230,2012-10-03 15:51:00
12:12 PM,73.4,68.0,83,30.10,10.0,WSW,8.1,-,N/A,,Clear,240,2012-10-03 16:12:00
12:33 PM,77.0,68.0,74,30.09,10.0,Calm,Calm,-,N/A,,Clear,0,2012-10-03 16:33:00
12:57 PM,77.0,68.0,74,30.09,10.0,WSW,4.6,-,N/A,,Clear,240,2012-10-03 16:57:00
1:18 PM,77.0,68.0,74,30.09,10.0,West,5.8,-,N/A,,Clear,260,2012-10-03 17:18:00
2:00 PM,78.8,68.0,69,30.09,10.0,WSW,5.8,-,N/A,,Clear,250,2012-10-03 18:00:00
2:21 PM,78.8,68.0,69,30.09,10.0,WSW,5.8,-,N/A,,Clear,250,2012-10-03 18:21:00
2:42 PM,77.0,68.0,74,30.08,10.0,SSW,4.6,-,N/A,,Clear,210,2012-10-03 18:42:00
3:03 PM,78.8,68.0,69,30.09,10.0,SW,3.5,-,N/A,,Clear,230,2012-10-03 19:03:00
3:24 PM,78.8,66.2,65,30.09,10.0,SW,3.5,-,N/A,,Clear,230,2012-10-03 19:24:00
3:45 PM,78.8,68.0,69,30.08,10.0,Calm,Calm,-,N/A,,Clear,0,2012-10-03 19:45:00
4:06 PM,78.8,68.0,69,30.08,10.0,Calm,Calm,-,N/A,,Clear,0,2012-10-03 20:06:00
4:27 PM,77.0,68.0,74,30.08,10.0,Calm,Calm,-,N/A,,Clear,0,2012-10-03 20:27:00
4:48 PM,77.0,68.0,74,30.08,10.0,Calm,Calm,-,N/A,,Clear,0,2012-10-03 20:48:00
5:12 PM,77.0,68.0,74,30.09,10.0,Calm,Calm,-,N/A,,Clear,0,2012-10-03 21:12:00
5:33 PM,77.0,68.0,74,30.09,10.0,Calm,Calm,-,N/A,,Clear,0,2012-10-03 21:33:00
5:54 PM,75.2,69.8,83,30.10,10.0,Calm,Calm,-,N/A,,Clear,0,2012-10-03 21:54:00
6:15 PM,73.4,69.8,88,30.10,10.0,Calm,Calm,-,N/A,,Clear,0,2012-10-03 22:15:00
7:18 PM,69.8,68.0,94,30.11,10.0,Calm,Calm,-,N/A,,Clear,0,2012-10-03 23:18:00
7:39 PM,69.8,68.0,94,30.11,10.0,Calm,Calm,-,N/A,,Clear,0,2012-10-03 23:39:00
8:00 PM,69.8,66.2,88,30.12,7.0,Calm,Calm,-,N/A,,Clear,0,2012-10-04 00:00:00
8:21 PM,68.0,66.2,94,30.12,7.0,Calm,Calm,-,N/A,,Clear,0,2012-10-04 00:21:00
8:42 PM,69.8,68.0,94,30.13,7.0,Calm,Calm,-,N/A,,Clear,0,2012-10-04 00:42:00
9:03 PM,68.0,66.2,94,30.13,7.0,Calm,Calm,-,N/A,,Scattered Clouds,0,2012-10-04 01:03:00
9:27 PM,68.0,66.2,94,30.13,5.0,Calm,Calm,-,N/A,,Scattered Clouds,0,2012-10-04 01:27:00
9:48 PM,68.0,66.2,94,30.13,5.0,Calm,Calm,-,N/A,,Clear,0,2012-10-04 01:48:00
10:09 PM,68.0,66.2,94,30.14,5.0,Calm,Calm,-,N/A,,Clear,0,2012-10-04 02:09:00
10:30 PM,68.0,66.2,94,30.13,5.0,Calm,Calm,-,N/A,,Clear,0,2012-10-04 02:30:00
10:51 PM,68.0,66.2,94,30.14,5.0,Calm,Calm,-,N/A,,Clear,0,2012-10-04 02:51:00
11:12 PM,68.0,66.2,94,30.13,5.0,Calm,Calm,-,N/A,,Clear,0,2012-10-04 03:12:00
11:54 PM,68.0,66.2,94,30.13,5.0,Calm,Calm,-,N/A,,Scattered Clouds,0,2012-10-04 03:54:00